Location: Unspecified
(0.0000°N, 0.0000°E)
Time: 22:40:37
(UTC+02:00)

Ariane H10 - Visible Passes

Search period start: 28 May 2016 00:00
Search period end: 07 June 2016 00:00
Orbit: 423 x 35073 km, 3.8° (Epoch: 27 May)

Date Brightness Start Highest point End Pass type
(mag) Time Alt. Az. Time Alt. Az. Time Alt. Az.
28 May 6.4 15:40:58 10° E 20:38:12 40° E 22:12:12 14° E visible
29 May 7.2 20:24:50 10° W 22:08:00 47° W 05:59:58 10° E visible
30 May 8.0 16:45:52 10° W 21:27:36 86° S 02:33:27 10° E visible
31 May 6.4 13:19:01 10° W 21:12:18 51° E 22:45:40 23° E visible
01 Jun 7.1 21:05:12 10° W 22:41:44 36° W 06:32:41 10° ENE visible
02 Jun 7.8 17:19:48 10° W 20:28:40 86° S 03:06:54 10° E visible
03 Jun 6.8 13:51:48 10° W 21:47:08 62° E 23:18:48 33° E visible
04 Jun 11.2 21:50:27 10° W 23:14:47 26° W 02:15:47 10° W visible
05 Jun 4.3 06:46:38 10° W 07:01:52 63° N 07:05:24 10° ENE visible
05 Jun 7.0 17:54:14 10° W 19:42:49 82° SW 03:40:06 10° E visible
